Regional Weather Roundup
Issued by NWS Kansas City/Pleasant Hill, MO

Home | Current Version | Previous Version | Graphics & Text | Print | Product List | Glossary Off
Versions: 1 2 3 4 5 6 7 8 9 10 11 12 13 14 15 16 17 18 19 20 21 22 23 24 25 26 27 28 29 30 31 32 33 34 35 36 37 38 39 40 41 42 43 44 45 46 47 48 49 50

306
ASUS43 KEAX 281410
RWREAX

WEATHER ROUNDUP FOR EASTERN KANSAS AND NORTHWEST MISSOURI
NATIONAL WEATHER SERVICE KANSAS CITY/PLEASANT HILL MO
900 AM CDT WED SEP 28 2016

KSZ040-057-103>105-MOZ028-029-037-043-281500-
...KANSAS CITY METROPOLITAN AREA...

CITY           SKY/WX    TMP DP  RH WIND       PRES   REMARKS
K.C. INTL      SUNNY     56  45  66 N12       30.03R
K.C. DOWNTOWN  MOSUNNY   60  46  59 N8        30.01R
LEES SUMMIT    SUNNY     59  45  59 N10       30.01R
OLATHE - IXD   SUNNY     58  47  66 N13       30.03R
OLATHE - OJC   SUNNY     60  44  55 N10       30.02R
LAWRENCE       SUNNY     59  48  67 N7        30.03R

$$

MOZ001>008-011>017-020>025-030>033-038>040-044>046-053-054-281500-
...NORTHERN AND CENTRAL MISSOURI...

CITY           SKY/WX    TMP DP  RH WIND       PRES   REMARKS
ST. JOSEPH     SUNNY     55  46  71 N12G22    30.06R
MOSBY          MOSUNNY   55  45  67 N10       30.02R
WHITEMAN AFB   MOSUNNY   58  49  71 N13       29.97R
CLINTON        SUNNY     59  50  72 N10       29.97R
SEDALIA        SUNNY     62  47  57 N9        29.98R
WARSAW         NOT AVBL
CHILLICOTHE      N/A     56  46  69 N7        30.03R
KIRKSVILLE     MOSUNNY   53  43  68 N18G26    30.00R

$$

MOZ041-047>049-056>058-063>065-088>090-097-281500-
...EASTERN AND SOUTHERN MISSOURI...

CITY           SKY/WX    TMP DP  RH WIND       PRES   REMARKS
ST. LOUIS INTL CLOUDY    64  46  52 N18       29.87R
SPIRIT OF STL  PTSUNNY   63  51  65 N9        29.87R
COLUMBIA       SUNNY     59  46  62 N17       29.94R
JEFFERSON CITY   N/A     61  47  59 N8        29.93R
ROLLA          SUNNY     61  53  75 N14       29.90R
OSAGE BEACH    SUNNY     63  52  67 N6        29.94R
SPRINGFIELD    SUNNY     66  50  56 W9        29.93R
BRANSON        SUNNY     66  48  52 SW7       29.94R
JOPLIN         SUNNY     64  52  64 W6        29.96R
WEST PLAINS    SUNNY     63  50  62 W10       29.92S

$$

IAZ060-094-KSZ022-034>040-054-083-096-NEZ052-066-093-281500-
...KANSAS...SOUTHEAST NEBRASKA AND IOWA...

CITY           SKY/WX    TMP DP  RH WIND       PRES   REMARKS
TOPEKA         SUNNY     59  48  67 N8        30.05R
MANHATTAN      SUNNY     59  48  67 NE12      30.08R
EMPORIA        SUNNY     61  48  62 N10       30.04R
CHANUTE        SUNNY     64  55  72 N12G20    29.98R
WICHITA        SUNNY     65  52  62 N12       30.04R
OMAHA          MOSUNNY   51  44  77 N14       30.12R
LINCOLN        SUNNY     52  44  74 N9        30.15R
FALLS CITY     SUNNY     54  45  71 N12       30.08R
LAMONI         CLOUDY    51  46  83 N13       30.04R
DES MOINES     CLOUDY    54  44  69 N16       30.05R

$$





USA.gov is the U.S. government's official web portal to all federal, state and local government web resources and services.